Regional Weather Roundup
Issued by NWS

Home | Current Version | Previous Version | Graphics & Text | Print | Product List | Glossary On
Versions: 1 2 3 4 5 6 7 8 9 10 11 12 13 14 15 16 17 18 19 20 21 22 23 24 25 26 27 28 29 30 31 32 33 34 35 36 37 38 39 40 41 42 43 44 45 46 47 48 49 50
000
ASUS43 KTOP 240959
RWRKS

WEATHER ROUNDUP FOR KANSAS
NATIONAL WEATHER SERVICE GOODLAND KS
500 AM CDT TUE MAY 24 2016

NOTE:  "FAIR" INDICATES FEW OR NO CLOUDS BELOW 12,000 FEET WITH NO
SIGNIFICANT WEATHER AND/OR OBSTRUCTIONS TO VISIBILITY.

KSZ001>006-013>018-027>032-041>047-241100-
NORTHWEST KANSAS

CITY           SKY/WX    TMP DP  RH WIND       PRES   REMARKS
GOODLAND       CLOUDY    56  43  61 N16       29.86R
HAYS           CLOUDY    64  54  68 N24G35    29.89R
HILL CITY      TSTM      59  58  96 E8G28     29.83S FOG
RUSSELL        CLOUDY    62  58  86 E18       29.82R THUNDER
$$

KSZ061>065-074>080-084>089-241100-
SOUTHWEST KANSAS

CITY           SKY/WX    TMP DP  RH WIND       PRES   REMARKS
DODGE CITY     MOCLDY    66  65  96 S14       29.76R
ELKHART          N/A     64  59  84 SW12        N/A
GARDEN CITY    CLEAR     64  62  93 S9        29.75R
GREAT BEND     CLOUDY    70  63  78 E15       29.82R
LIBERAL        CLEAR     61  55  82 S9        29.78S
$$

KSZ066>073-081>083-090>101-241100-
SOUTHEAST KANSAS

CITY           SKY/WX    TMP DP  RH WIND       PRES   REMARKS
CHANUTE        LGT RAIN  67  63  87 SE7       29.88R
COFFEYVILLE    CLOUDY    67  63  87 SE7       29.86R
HUTCHINSON     CLOUDY    69  67  93 NE8       29.82R FOG
MEDICINE LODGE   N/A     69  67  93 SE8       29.76R
NEWTON         CLOUDY    66  63  88 E6        29.87R
PARSONS        CLOUDY    68  64  87 SE3       29.88R
WICHITA INTL   DRIZZLE   70  67  90 SE9       29.80F
WICHITA JABRA  CLOUDY    67  66  97 E7        29.82R
WINFIELD       CLOUDY    69  66  90 SE8       29.82F
$$

KSZ007>012-019>026-033>040-048>060-102>105-241100-
NORTHEAST KANSAS

CITY           SKY/WX    TMP DP  RH WIND       PRES   REMARKS
CONCORDIA      LGT RAIN  60  57  89 SE6       29.85R
EMPORIA        CLOUDY    65  64  97 SE6       29.89R
LAWRENCE       CLOUDY    61  60  97 E3        29.89R
MANHATTAN      LGT RAIN  61  58  90 SE6       29.88F
OLATHE IND     CLOUDY    62  61  96 S7        29.91R
OLATHE EXE     CLOUDY    62  61  96 S6        29.90R
SALINA         CLOUDY    64  60  87 E13       29.87S
TOPEKA BILLARD CLOUDY    63  61  93 MISG      29.92R
TOPEKA FORBES  CLOUDY    63  60  90 SW5       29.91R
$$



USA.gov is the U.S. government's official web portal to all federal, state and local government web resources and services.